CAPE
nan nan nan nan nan nan nan nan nan nan nan nan nan nan nan 0 0 0 0 nan nan nan nan nan nan nan nan nan 0 0 3 5 5 5 4 3 2 2 2 2 2 1 2 2 2 1 0 0 0 nan nan nan nan nan nan nan nan 0 0 1 1 1 1 1 1 1 2 1 0 0 nan nan nan nan nan nan nan nan nan 0 0 0 2 1 1 2
nan nan nan nan nan nan nan nan nan nan nan nan nan nan nan nan nan nan nan nan nan nan nan nan nan nan nan nan 0 0 6 5 5 5 4 3 2 2 2 1 1 1 2 2 2 1 1 0 0 0 0 nan nan nan nan nan nan nan nan nan nan nan 0 0 0 0 1 nan nan nan nan nan nan nan nan nan nan nan nan 0 0 0 1 2 2 3
nan nan nan nan nan nan nan nan nan nan nan nan nan nan nan nan nan nan nan nan nan nan nan nan nan nan nan nan 1 1 5 6 5 5 4 3 1 1 1 1 1 0 1 2 2 2 1 0 0 0 0 0 nan nan nan nan nan nan nan nan nan nan nan nan nan nan nan nan nan nan nan nan nan nan nan nan nan nan nan nan nan 0 0 1 1 3
nan nan nan nan nan nan nan nan nan nan nan nan nan nan nan nan nan nan nan nan nan nan nan nan nan nan nan nan nan nan 6 5 4 4 2 1 0 0 nan nan nan 0 1 1 1 1 1 0 0 0 0 nan nan nan nan nan nan nan nan nan nan nan nan nan nan nan nan nan nan nan nan nan nan nan nan nan nan nan nan nan nan nan 0 1 1 2
nan nan nan nan nan 0 nan nan nan nan 0 0 nan nan nan nan nan nan nan nan nan nan nan nan nan nan nan nan nan nan 3 5 3 3 2 1 1 1 0 0 0 0 1 1 1 0 0 0 0 nan nan nan nan nan nan nan nan nan nan nan nan nan nan nan nan nan nan nan nan nan nan nan nan nan nan nan nan nan nan nan nan nan nan 0 0 2
nan nan nan nan nan 0 0 nan nan nan nan nan nan nan nan nan nan nan nan nan nan nan nan nan nan nan nan nan nan nan 0 3 2 2 2 2 3 3 2 1 1 2 1 0 0 nan nan nan nan nan nan nan nan nan nan nan nan nan nan nan nan nan nan nan nan nan nan nan nan nan nan nan nan nan nan nan nan nan nan nan nan nan nan 0 0 1
nan nan nan nan nan 0 0 nan nan nan nan nan nan nan nan nan nan nan nan nan nan nan nan nan nan nan nan nan nan nan nan nan 1 1 0 2 2 2 1 1 1 1 0 nan nan nan nan nan nan nan nan nan nan nan nan nan nan nan nan nan nan nan nan nan nan nan nan nan nan nan nan nan nan nan nan nan nan nan nan nan nan nan nan nan nan 0
nan nan nan 0 0 0 0 0 nan nan nan nan nan nan nan nan nan nan nan nan nan nan nan nan nan nan nan nan nan nan nan nan nan nan nan nan nan nan nan nan nan nan nan nan nan nan nan nan nan nan nan nan nan nan nan nan nan nan nan nan nan nan nan nan nan nan nan nan nan nan nan nan nan nan nan nan nan nan nan nan nan nan nan nan nan nan
nan nan nan nan nan nan nan 0 nan nan nan nan nan nan nan nan nan nan nan nan nan nan nan nan nan nan nan nan nan nan nan nan nan nan nan nan nan nan nan nan nan nan nan nan nan nan nan nan nan nan nan nan nan nan nan nan nan nan nan nan nan nan nan nan nan nan nan nan nan nan nan nan nan nan nan nan nan nan nan nan nan nan nan nan nan nan
nan nan nan nan nan nan nan 0 nan nan nan nan nan nan nan nan nan nan nan nan nan nan nan nan nan nan nan nan nan nan nan nan nan nan nan nan nan nan nan nan nan nan nan nan nan nan nan nan nan nan nan nan nan nan nan nan nan nan nan nan nan nan nan nan nan nan nan nan nan nan nan nan nan nan nan nan 0 0 nan nan nan nan nan nan nan nan
nan nan nan nan nan nan nan nan nan nan nan nan nan nan nan nan nan nan nan nan nan nan nan nan nan nan nan nan nan nan nan nan nan nan nan nan nan nan nan nan nan nan nan nan nan nan nan nan nan nan nan nan nan nan nan nan nan nan nan nan nan nan nan nan nan nan nan nan nan nan 0 0 0 0 0 0 0 0 0 0 0 0 nan nan nan nan
nan nan nan nan nan nan nan nan nan nan nan nan nan nan nan nan nan nan nan nan nan nan nan nan nan nan nan nan nan nan nan nan nan nan nan nan nan nan nan nan nan nan nan nan nan nan nan nan nan nan nan nan nan nan nan nan nan nan nan nan nan nan nan nan nan nan nan 0 0 0 1 1 0 0 1 0 0 0 0 0 0 0 0 0 0 0
nan nan nan nan nan nan nan nan nan nan nan nan nan nan nan nan nan nan nan nan nan nan nan nan nan nan nan nan nan nan nan nan nan nan nan nan nan nan nan nan nan nan nan nan nan nan nan nan nan nan nan nan nan nan nan nan nan nan nan nan nan nan nan nan nan nan 0 0 1 1 1 1 1 1 1 0 0 0 0 0 0 0 0 0 0 0
nan nan nan nan nan nan nan nan nan nan nan nan nan nan nan nan nan nan nan nan nan nan nan nan nan nan nan nan nan nan nan nan nan nan nan nan nan nan nan nan nan nan nan nan nan nan nan nan nan nan nan nan nan nan nan nan nan nan nan nan nan nan nan nan nan nan 0 1 1 1 1 2 2 2 1 1 1 1 0 0 0 nan nan 0 0 0
nan nan nan nan nan nan nan nan nan nan nan nan nan nan nan nan nan nan nan nan nan nan nan nan nan nan nan nan nan nan nan nan nan nan nan nan nan nan nan nan nan nan nan nan nan nan nan nan nan nan nan nan nan nan nan nan nan nan nan nan nan nan nan nan nan 0 0 1 2 2 2 2 2 2 2 1 1 1 1 0 0 0 nan nan nan nan
nan nan nan nan nan nan nan nan nan nan nan nan nan nan nan nan nan nan nan nan nan nan nan nan nan nan nan nan nan nan nan nan nan nan nan nan nan nan nan nan nan nan nan nan nan nan nan nan nan nan nan nan nan nan nan nan nan nan nan nan nan nan nan nan nan 0 0 2 2 2 2 2 2 2 2 1 1 1 1 1 1 0 nan nan nan nan
nan nan nan nan nan nan nan nan nan nan nan nan nan nan nan nan nan nan nan nan nan nan nan nan nan nan nan nan nan nan nan nan nan nan nan nan nan nan nan nan nan nan nan nan nan nan nan nan nan nan nan nan nan nan nan nan nan nan nan nan nan nan nan nan nan 0 1 2 1 1 1 2 3 3 2 2 2 2 2 1 1 0 0 0 0 nan
nan nan nan nan nan nan nan nan nan nan nan nan nan nan nan nan nan nan nan nan nan nan nan nan nan nan nan nan nan nan nan nan nan nan nan nan nan nan nan nan nan nan nan nan nan nan nan nan nan nan nan nan nan nan nan nan nan nan nan nan nan nan nan 0 0 0 1 1 1 1 1 2 3 3 4 4 4 4 3 2 2 1 2 1 1 2
nan nan nan nan nan nan nan nan nan nan nan nan nan nan nan nan nan nan nan nan nan nan nan nan nan nan nan nan nan nan nan nan nan nan nan nan nan nan nan nan nan nan nan nan nan nan nan nan nan nan nan nan nan nan nan nan nan nan nan nan nan nan 0 0 0 1 1 0 0 0 1 2 3 3 4 5 6 6 5 5 5 6 9 15 15 11
nan nan nan nan nan nan nan nan nan nan nan nan nan nan nan nan nan nan nan nan nan nan nan nan nan nan nan nan nan nan nan nan nan nan nan nan nan nan nan nan nan nan nan nan nan nan nan nan nan nan nan nan nan nan nan nan nan nan nan nan nan nan 0 1 1 0 nan nan 1 1 1 2 2 2 2 3 4 4 5 5 5 6 9 13 13 11
nan nan nan nan nan nan nan nan nan nan nan nan nan nan nan nan nan nan nan nan nan nan nan nan nan nan nan nan nan nan nan nan nan nan nan nan nan nan nan nan nan nan nan nan nan nan nan nan nan nan nan nan nan nan nan nan nan nan nan nan nan 0 0 0 0 0 0 1 1 1 1 2 2 2 2 3 3 3 3 4 4 4 5 6 6 9
nan nan nan nan nan nan nan nan nan nan nan nan nan nan nan nan nan nan nan nan nan nan nan nan nan nan nan nan nan nan nan nan nan nan nan nan nan nan nan nan nan nan nan nan nan nan nan nan nan nan nan nan nan nan nan nan nan nan nan 0 0 0 1 0 0 0 1 2 2 2 2 3 3 3 4 4 3 3 3 3 3 3 2 2 2 3
nan nan nan nan nan nan nan nan nan nan nan nan nan nan nan nan nan nan nan nan nan nan nan nan nan nan nan nan nan nan nan nan nan nan nan nan nan nan nan nan nan nan nan nan nan nan nan nan nan nan nan nan nan nan nan nan nan nan nan 0 0 1 0 0 0 1 2 2 3 3 4 4 5 5 6 6 5 5 5 4 4 3 3 3 3 3
nan nan nan nan nan nan nan nan nan nan nan nan nan nan nan nan nan nan nan nan nan nan nan nan nan nan nan nan nan nan nan nan nan nan nan nan nan nan nan nan nan nan nan nan nan nan nan nan nan nan nan nan nan nan nan nan nan nan 0 1 1 1 0 0 0 0 1 2 2 2 4 5 6 6 7 8 8 8 7 6 6 5 4 4 4 4
nan nan nan nan nan nan nan nan nan nan nan nan nan nan nan nan nan nan nan nan nan nan nan nan nan nan nan nan nan nan nan nan nan nan nan nan nan nan nan nan nan nan nan nan nan nan nan nan nan nan nan nan nan nan nan nan nan 0 1 1 1 1 0 nan nan nan 0 1 2 2 2 3 4 4 5 6 6 6 7 6 6 6 5 5 5 5
nan nan nan nan nan nan nan nan nan nan nan nan nan nan nan nan nan nan nan nan nan nan nan nan nan nan nan nan nan nan nan nan nan nan nan nan nan nan nan nan nan nan nan nan nan nan nan nan nan nan nan nan nan nan nan nan nan 1 1 0 0 nan nan nan nan nan nan nan 1 1 2 2 3 3 4 4 4 4 5 5 5 5 6 6 6 6
nan nan nan nan nan nan nan nan nan nan nan nan nan nan nan nan nan nan nan nan nan nan nan nan nan nan nan nan nan nan nan nan nan nan nan nan nan nan nan nan nan nan nan nan nan nan nan nan nan nan nan nan nan nan nan nan nan 0 1 nan nan nan nan nan nan nan nan nan 0 0 1 2 2 2 3 3 3 3 4 4 4 5 5 6 6 7
nan nan nan nan nan nan nan nan nan nan nan nan nan nan nan nan nan nan nan nan nan nan nan nan nan nan nan nan nan nan nan nan nan nan nan nan nan nan nan nan nan nan nan nan nan nan nan nan nan nan nan nan nan nan nan nan nan nan nan nan nan nan nan nan nan nan nan nan 0 0 1 1 2 2 2 3 3 3 4 4 4 4 5 4 4 3
nan nan nan nan nan nan nan nan nan nan nan nan nan nan nan nan nan nan nan nan nan nan nan nan nan nan nan nan nan nan nan nan nan nan nan nan nan nan nan nan nan nan nan nan nan nan nan nan nan nan nan nan nan nan nan nan nan nan nan nan nan nan nan nan nan nan nan nan 0 0 2 3 2 2 3 2 3 3 3 3 3 4 4 3 3 0
nan nan nan nan nan nan 1 nan nan nan nan nan nan nan nan nan nan nan nan nan nan nan nan nan nan nan nan nan nan nan nan nan nan nan nan nan nan nan nan nan nan nan nan nan nan nan nan nan nan nan nan nan nan nan nan nan nan nan nan nan nan nan nan nan nan nan nan nan nan nan 0 2 3 3 2 3 3 3 3 3 3 2 2 0 0 nan
nan nan nan nan nan nan nan nan nan nan nan nan nan nan nan nan nan nan nan nan nan nan nan nan nan nan nan nan nan nan nan nan nan nan nan nan nan nan nan nan nan nan nan nan nan nan nan nan nan nan nan nan nan nan nan nan nan nan nan nan nan nan nan nan nan nan nan nan nan nan nan 0 2 2 2 2 2 2 2 3 3 2 nan nan nan nan
nan nan nan nan nan nan nan nan nan nan nan nan nan nan nan nan nan nan nan nan nan nan nan nan nan nan nan nan nan nan nan nan nan nan nan nan nan nan nan nan nan nan nan nan nan nan nan nan nan nan nan nan nan nan nan nan nan nan nan nan nan nan nan nan nan nan nan nan nan nan nan nan nan nan nan nan nan nan 0 1 1 2 nan nan nan nan
nan nan nan nan nan nan nan nan nan nan nan nan nan nan nan nan nan nan nan nan nan nan nan nan nan nan nan nan nan nan nan nan nan nan nan nan nan nan nan nan nan nan nan nan nan nan nan nan nan nan nan nan nan nan nan nan nan nan nan nan nan nan nan nan nan nan nan nan nan nan nan nan nan nan nan nan nan nan 0 1 1 3 1 nan nan nan
nan nan nan nan nan nan nan nan nan nan nan nan nan nan nan nan nan nan nan nan nan nan nan nan nan nan nan nan nan nan nan nan nan nan nan nan nan nan nan nan nan nan nan nan nan nan nan nan nan nan nan nan nan nan nan nan nan nan nan nan nan nan nan nan nan nan nan nan nan nan nan nan nan nan nan nan nan nan 1 1 1 3 5 nan nan nan
nan nan nan nan nan nan nan nan nan nan nan nan nan nan nan nan nan nan nan nan nan nan nan nan nan nan nan nan nan nan nan nan nan nan 2 nan nan nan nan nan nan nan nan nan nan nan nan nan nan nan nan nan nan nan nan nan nan nan nan nan nan nan nan nan nan nan nan nan nan nan nan nan nan nan nan nan nan nan 1 0 0 1 2 7 7 0
nan nan nan nan nan nan nan nan nan nan nan nan nan nan nan nan nan nan nan nan nan nan nan nan nan nan nan nan nan nan nan nan nan nan 2 nan nan nan nan nan nan nan nan nan nan nan nan nan nan nan nan nan nan nan nan nan nan nan nan nan nan nan nan nan nan nan nan nan nan nan nan nan nan nan nan nan nan nan nan nan nan nan nan 1 1 0
nan nan nan nan nan nan nan nan nan nan nan nan nan nan nan nan nan nan nan nan nan nan nan nan nan nan nan nan nan nan nan nan nan nan 0 nan nan nan nan nan nan nan nan nan nan nan nan nan nan nan nan nan nan nan nan nan nan nan nan nan nan nan nan nan nan nan nan nan nan nan nan nan nan nan nan nan nan nan nan nan nan nan nan nan nan nan
nan nan nan nan nan nan nan nan nan nan nan nan nan nan nan nan nan nan nan nan nan nan nan nan nan nan nan nan nan nan nan nan nan nan nan nan nan nan nan nan nan nan nan nan nan nan nan nan nan nan nan nan nan nan nan nan nan nan nan nan nan nan nan nan nan nan nan nan nan nan nan nan nan nan nan nan nan nan nan nan nan nan nan nan nan nan
nan nan nan nan nan nan nan nan nan nan nan nan nan nan nan nan nan nan nan nan nan nan nan nan nan nan nan nan nan nan nan nan nan nan nan nan nan nan nan nan nan nan nan nan nan nan nan nan nan nan nan nan nan nan nan nan nan nan nan nan nan nan nan nan nan nan nan nan nan nan nan nan nan nan nan nan nan nan nan nan nan nan nan nan nan nan
nan nan nan nan nan nan nan nan nan nan nan nan nan nan nan nan nan nan nan nan nan nan nan nan nan nan nan nan nan nan nan nan nan nan nan nan nan nan nan nan nan nan nan nan nan nan nan nan nan nan nan nan nan nan nan nan nan nan nan nan nan nan nan nan nan nan nan nan nan nan nan nan nan nan nan nan nan nan nan nan nan nan nan nan nan nan
nan nan nan nan nan nan nan nan nan nan nan nan nan nan nan nan nan nan nan nan nan nan nan nan nan nan nan nan nan nan nan nan nan nan nan nan nan nan nan nan nan nan nan nan nan nan nan nan nan nan nan nan nan nan nan nan nan nan nan nan nan nan nan nan nan nan nan nan nan nan nan nan nan nan nan nan nan nan nan nan nan nan nan nan nan nan
nan nan nan nan nan nan nan nan nan nan nan nan nan nan nan nan nan nan nan nan nan nan nan nan nan nan nan nan nan nan nan nan nan nan nan nan nan nan nan nan nan nan nan nan nan nan nan nan nan nan nan nan nan nan nan nan nan nan nan nan nan nan nan nan nan nan nan nan nan nan nan nan nan nan nan nan nan nan nan nan nan nan nan nan nan nan
nan nan nan nan nan nan nan nan nan nan nan nan nan nan nan nan nan nan nan nan nan nan nan nan nan nan nan nan nan nan nan nan nan nan nan nan nan nan nan nan nan nan nan nan nan nan nan nan nan nan nan nan nan nan nan nan nan nan nan nan nan nan nan nan nan nan nan nan nan nan nan nan nan nan nan nan nan nan nan nan nan nan nan nan nan nan
nan nan nan nan nan nan nan nan nan nan nan nan nan nan nan nan nan nan nan nan nan nan nan nan nan nan nan nan nan nan nan nan nan nan nan nan nan nan nan nan nan nan nan nan nan nan nan nan nan nan nan nan nan nan nan nan nan nan nan nan nan nan nan nan nan nan nan nan nan nan nan nan nan nan nan nan nan nan nan nan nan nan nan nan nan nan
nan nan nan nan nan nan nan nan nan nan nan nan nan nan nan nan nan nan nan nan nan nan nan nan nan nan nan nan nan nan nan nan nan nan nan nan 0 0 nan nan nan nan nan nan nan nan nan nan nan nan nan nan nan nan nan nan nan nan nan nan nan nan nan nan nan nan nan nan nan nan nan nan nan nan nan nan nan nan nan nan nan nan nan nan nan nan
nan nan nan nan nan nan nan nan nan nan nan nan nan nan nan nan nan nan nan nan nan nan nan nan nan nan nan nan nan nan nan nan nan nan nan nan nan nan nan nan nan nan nan nan nan nan nan nan nan nan nan nan nan nan nan nan nan nan nan nan nan nan nan nan nan nan nan nan nan nan nan nan nan nan nan nan nan nan nan nan nan nan nan nan nan nan
nan nan nan nan nan nan nan nan nan nan nan nan nan nan nan nan nan nan nan nan nan nan nan nan nan nan nan nan nan nan nan nan nan nan nan nan nan nan nan nan nan nan nan nan nan nan nan nan nan nan nan nan nan nan nan nan nan nan nan nan nan nan nan nan nan nan nan nan nan nan nan nan nan nan nan nan nan nan nan nan nan nan nan nan nan nan
nan nan nan nan nan nan nan nan nan nan nan nan nan nan nan nan nan nan nan nan nan nan nan nan nan nan nan nan nan nan nan nan nan nan nan nan nan nan nan nan nan nan nan nan nan nan nan nan nan nan nan nan nan nan nan nan nan nan nan nan nan nan nan nan nan nan nan nan nan nan nan nan nan nan nan nan nan nan nan nan nan nan nan nan nan nan
nan nan nan nan nan nan nan nan nan nan nan nan nan nan nan nan nan nan nan nan nan nan nan nan nan nan nan nan nan nan nan nan nan nan nan nan nan nan nan nan nan nan nan 0 0 1 0 0 0 nan nan nan nan nan nan nan nan nan nan nan nan nan nan nan nan nan nan nan nan nan nan nan nan nan nan nan nan nan nan nan nan nan nan nan nan nan
nan nan nan nan nan nan nan nan nan nan nan nan nan nan nan nan nan nan nan nan nan nan nan nan nan nan nan nan nan nan nan nan nan nan nan nan nan nan nan nan nan nan nan nan nan nan nan nan nan nan 4 0 nan nan nan nan nan nan nan nan nan nan nan nan nan nan nan nan nan nan nan nan nan nan nan nan nan nan nan nan nan nan nan nan nan nan
nan nan nan nan nan nan nan nan nan nan nan nan nan nan nan nan nan nan nan nan nan nan nan nan nan nan nan nan nan nan nan nan nan nan nan nan nan nan nan nan nan nan nan nan nan nan nan nan nan nan nan 13 2 2 nan nan nan nan nan nan nan nan nan nan nan nan nan nan nan nan nan nan nan nan nan nan nan nan nan nan nan nan nan nan nan nan
CIN
nan nan nan nan nan nan nan nan nan nan nan nan nan nan nan -0 -0 -0 -0 nan nan nan nan nan nan nan nan nan -9 -9 -0 -0 -0 -0 -0 -0 -0 -0 -0 -0 -0 -0 -0 -0 -0 -0 -0 -0 -0 nan nan nan nan nan nan nan nan -0 -0 -0 -0 -0 -0 -0 -0 -0 -0 -0 -0 -0 nan nan nan nan nan nan nan nan nan -0 -0 -0 -0 -0 -0 -0
nan nan nan nan nan nan nan nan nan nan nan nan nan nan nan nan nan nan nan nan nan nan nan nan nan nan nan nan -13 -13 -0 -0 -0 -0 -0 -0 -0 -0 -0 -0 -0 -0 -0 -0 -0 -0 -0 -0 -0 -0 -0 nan nan nan nan nan nan nan nan nan nan nan -0 -0 -0 -0 -0 nan nan nan nan nan nan nan nan nan nan nan nan -0 -0 -0 -0 -0 -0 -0
nan nan nan nan nan nan nan nan nan nan nan nan nan nan nan nan nan nan nan nan nan nan nan nan nan nan nan nan -4 -4 -0 -0 -0 -0 -0 -0 -0 -0 -0 -0 -0 -0 -0 -0 -0 -0 -0 -0 -0 -0 -0 -0 nan nan nan nan nan nan nan nan nan nan nan nan nan nan nan nan nan nan nan nan nan nan nan nan nan nan nan nan nan -0 -0 -0 -0 -0
nan nan nan nan nan nan nan nan nan nan nan nan nan nan nan nan nan nan nan nan nan nan nan nan nan nan nan nan nan nan -0 -0 -0 -0 -0 -0 -0 -0 nan nan nan -0 -0 -0 -0 -0 -0 -0 -0 -0 -0 nan nan nan nan nan nan nan nan nan nan nan nan nan nan nan nan nan nan nan nan nan nan nan nan nan nan nan nan nan nan nan -0 -0 -0 -0
nan nan nan nan nan -0 nan nan nan nan -0 -0 nan nan nan nan nan nan nan nan nan nan nan nan nan nan nan nan nan nan -5 -0 -0 -0 -0 -0 -0 -0 -0 -0 -0 -0 -0 -0 -0 -0 -0 -0 -0 nan nan nan nan nan nan nan nan nan nan nan nan nan nan nan nan nan nan nan nan nan nan nan nan nan nan nan nan nan nan nan nan nan nan -0 -0 -0
nan nan nan nan nan -0 -0 nan nan nan nan nan nan nan nan nan nan nan nan nan nan nan nan nan nan nan nan nan nan nan -22 -0 -0 -0 -0 -0 -0 -0 -0 -0 -0 -0 -0 -0 -0 nan nan nan nan nan nan nan nan nan nan nan nan nan nan nan nan nan nan nan nan nan nan nan nan nan nan nan nan nan nan nan nan nan nan nan nan nan nan -0 -0 -0
nan nan nan nan nan -0 -0 nan nan nan nan nan nan nan nan nan nan nan nan nan nan nan nan nan nan nan nan nan nan nan nan nan -0 -0 -3 -2 -0 -0 -0 -0 -0 -0 -0 nan nan nan nan nan nan nan nan nan nan nan nan nan nan nan nan nan nan nan nan nan nan nan nan nan nan nan nan nan nan nan nan nan nan nan nan nan nan nan nan nan nan -0
nan nan nan -0 -0 -0 -0 -0 nan nan nan nan nan nan nan nan nan nan nan nan nan nan nan nan nan nan nan nan nan nan nan nan nan nan nan nan nan nan nan nan nan nan nan nan nan nan nan nan nan nan nan nan nan nan nan nan nan nan nan nan nan nan nan nan nan nan nan nan nan nan nan nan nan nan nan nan nan nan nan nan nan nan nan nan nan nan
nan nan nan nan nan nan nan -0 nan nan nan nan nan nan nan nan nan nan nan nan nan nan nan nan nan nan nan nan nan nan nan nan nan nan nan nan nan nan nan nan nan nan nan nan nan nan nan nan nan nan nan nan nan nan nan nan nan nan nan nan nan nan nan nan nan nan nan nan nan nan nan nan nan nan nan nan nan nan nan nan nan nan nan nan nan nan
nan nan nan nan nan nan nan -0 nan nan nan nan nan nan nan nan nan nan nan nan nan nan nan nan nan nan nan nan nan nan nan nan nan nan nan nan nan nan nan nan nan nan nan nan nan nan nan nan nan nan nan nan nan nan nan nan nan nan nan nan nan nan nan nan nan nan nan nan nan nan nan nan nan nan nan nan -0 -0 nan nan nan nan nan nan nan nan
nan nan nan nan nan nan nan nan nan nan nan nan nan nan nan nan nan nan nan nan nan nan nan nan nan nan nan nan nan nan nan nan nan nan nan nan nan nan nan nan nan nan nan nan nan nan nan nan nan nan nan nan nan nan nan nan nan nan nan nan nan nan nan nan nan nan nan nan nan nan -0 -0 -0 -0 -0 -0 -0 -0 -0 -0 -0 -0 nan nan nan nan
nan nan nan nan nan nan nan nan nan nan nan nan nan nan nan nan nan nan nan nan nan nan nan nan nan nan nan nan nan nan nan nan nan nan nan nan nan nan nan nan nan nan nan nan nan nan nan nan nan nan nan nan nan nan nan nan nan nan nan nan nan nan nan nan nan nan nan -0 -0 -0 -0 -0 -0 -0 -0 -0 -0 -0 -0 -0 -0 -0 -0 -0 -0 -0
nan nan nan nan nan nan nan nan nan nan nan nan nan nan nan nan nan nan nan nan nan nan nan nan nan nan nan nan nan nan nan nan nan nan nan nan nan nan nan nan nan nan nan nan nan nan nan nan nan nan nan nan nan nan nan nan nan nan nan nan nan nan nan nan nan nan -0 -0 -0 -0 -0 -0 -0 -0 -0 -0 -0 -0 -0 -0 -0 -0 -0 -0 -0 -0
nan nan nan nan nan nan nan nan nan nan nan nan nan nan nan nan nan nan nan nan nan nan nan nan nan nan nan nan nan nan nan nan nan nan nan nan nan nan nan nan nan nan nan nan nan nan nan nan nan nan nan nan nan nan nan nan nan nan nan nan nan nan nan nan nan nan -0 -0 -0 -0 -0 -0 -0 -0 -0 -0 -0 -0 -0 -0 -0 nan nan -0 -0 -0
nan nan nan nan nan nan nan nan nan nan nan nan nan nan nan nan nan nan nan nan nan nan nan nan nan nan nan nan nan nan nan nan nan nan nan nan nan nan nan nan nan nan nan nan nan nan nan nan nan nan nan nan nan nan nan nan nan nan nan nan nan nan nan nan nan -0 -0 -0 -0 -0 -0 -0 -0 -0 -0 -0 -0 -0 -0 -0 -0 -0 nan nan nan nan
nan nan nan nan nan nan nan nan nan nan nan nan nan nan nan nan nan nan nan nan nan nan nan nan nan nan nan nan nan nan nan nan nan nan nan nan nan nan nan nan nan nan nan nan nan nan nan nan nan nan nan nan nan nan nan nan nan nan nan nan nan nan nan nan nan -0 -0 -0 -0 -0 -0 -0 -0 -0 -0 -0 -0 -0 -0 -0 -0 -0 nan nan nan nan
nan nan nan nan nan nan nan nan nan nan nan nan nan nan nan nan nan nan nan nan nan nan nan nan nan nan nan nan nan nan nan nan nan nan nan nan nan nan nan nan nan nan nan nan nan nan nan nan nan nan nan nan nan nan nan nan nan nan nan nan nan nan nan nan nan -0 -0 -0 -0 -0 -0 -0 -0 -0 -0 -0 -0 -0 -0 -0 -0 -0 -0 -0 -0 nan
nan nan nan nan nan nan nan nan nan nan nan nan nan nan nan nan nan nan nan nan nan nan nan nan nan nan nan nan nan nan nan nan nan nan nan nan nan nan nan nan nan nan nan nan nan nan nan nan nan nan nan nan nan nan nan nan nan nan nan nan nan nan nan -0 -0 -0 -0 -0 -0 -0 -0 -0 -0 -0 -0 -0 -0 -0 -0 -0 -0 -0 -0 -0 -0 -0
nan nan nan nan nan nan nan nan nan nan nan nan nan nan nan nan nan nan nan nan nan nan nan nan nan nan nan nan nan nan nan nan nan nan nan nan nan nan nan nan nan nan nan nan nan nan nan nan nan nan nan nan nan nan nan nan nan nan nan nan nan nan -0 -0 -0 -0 -0 -0 -0 -0 -0 -0 -0 -0 -0 -0 -0 -0 -0 -0 -0 -0 -0 -0 -0 -0
nan nan nan nan nan nan nan nan nan nan nan nan nan nan nan nan nan nan nan nan nan nan nan nan nan nan nan nan nan nan nan nan nan nan nan nan nan nan nan nan nan nan nan nan nan nan nan nan nan nan nan nan nan nan nan nan nan nan nan nan nan nan -0 -0 -0 -0 nan nan -0 -0 -0 -0 -0 -0 -0 -0 -0 -0 -0 -0 -0 -0 -0 -0 -0 -0
nan nan nan nan nan nan nan nan nan nan nan nan nan nan nan nan nan nan nan nan nan nan nan nan nan nan nan nan nan nan nan nan nan nan nan nan nan nan nan nan nan nan nan nan nan nan nan nan nan nan nan nan nan nan nan nan nan nan nan nan nan -0 -0 -0 -0 -0 -0 -0 -0 -0 -0 -0 -0 -0 -0 -0 -0 -0 -0 -0 -0 -0 -0 -0 -0 -0
nan nan nan nan nan nan nan nan nan nan nan nan nan nan nan nan nan nan nan nan nan nan nan nan nan nan nan nan nan nan nan nan nan nan nan nan nan nan nan nan nan nan nan nan nan nan nan nan nan nan nan nan nan nan nan nan nan nan nan -0 -0 -0 -0 -0 -0 -0 -0 -0 -0 -0 -0 -0 -0 -0 -0 -0 -0 -0 -0 -0 -0 -0 -0 -0 -0 -0
nan nan nan nan nan nan nan nan nan nan nan nan nan nan nan nan nan nan nan nan nan nan nan nan nan nan nan nan nan nan nan nan nan nan nan nan nan nan nan nan nan nan nan nan nan nan nan nan nan nan nan nan nan nan nan nan nan nan nan -0 -0 -0 -0 -0 -0 -0 -0 -0 -0 -0 -0 -0 -0 -0 -0 -0 -0 -0 -0 -0 -0 -0 -0 -0 -0 -0
nan nan nan nan nan nan nan nan nan nan nan nan nan nan nan nan nan nan nan nan nan nan nan nan nan nan nan nan nan nan nan nan nan nan nan nan nan nan nan nan nan nan nan nan nan nan nan nan nan nan nan nan nan nan nan nan nan nan -0 -0 -0 -0 -0 -0 -0 -0 -0 -0 -0 -0 -0 -0 -0 -0 -0 -0 -0 -0 -0 -0 -0 -0 -0 -0 -0 -0
nan nan nan nan nan nan nan nan nan nan nan nan nan nan nan nan nan nan nan nan nan nan nan nan nan nan nan nan nan nan nan nan nan nan nan nan nan nan nan nan nan nan nan nan nan nan nan nan nan nan nan nan nan nan nan nan nan -0 -0 -0 -0 -0 -0 nan nan nan -0 -0 -0 -0 -0 -0 -0 -0 -0 -0 -0 -0 -0 -0 -0 -0 -0 -0 -0 -0
nan nan nan nan nan nan nan nan nan nan nan nan nan nan nan nan nan nan nan nan nan nan nan nan nan nan nan nan nan nan nan nan nan nan nan nan nan nan nan nan nan nan nan nan nan nan nan nan nan nan nan nan nan nan nan nan nan -0 -0 -0 -0 nan nan nan nan nan nan nan -0 -0 -0 -0 -0 -0 -0 -0 -0 -0 -0 -0 -0 -0 -0 -0 -0 -0
nan nan nan nan nan nan nan nan nan nan nan nan nan nan nan nan nan nan nan nan nan nan nan nan nan nan nan nan nan nan nan nan nan nan nan nan nan nan nan nan nan nan nan nan nan nan nan nan nan nan nan nan nan nan nan nan nan -8 -0 nan nan nan nan nan nan nan nan nan -0 -0 -0 -0 -0 -0 -0 -0 -0 -0 -0 -0 -0 -0 -0 -0 -0 -0
nan nan nan nan nan nan nan nan nan nan nan nan nan nan nan nan nan nan nan nan nan nan nan nan nan nan nan nan nan nan nan nan nan nan nan nan nan nan nan nan nan nan nan nan nan nan nan nan nan nan nan nan nan nan nan nan nan nan nan nan nan nan nan nan nan nan nan nan -0 -0 -0 -0 -0 -0 -0 -0 -0 -0 -0 -0 -0 -0 -0 -0 -0 -13
nan nan nan nan nan nan nan nan nan nan nan nan nan nan nan nan nan nan nan nan nan nan nan nan nan nan nan nan nan nan nan nan nan nan nan nan nan nan nan nan nan nan nan nan nan nan nan nan nan nan nan nan nan nan nan nan nan nan nan nan nan nan nan nan nan nan nan nan -0 -0 -0 -0 -0 -0 -0 -0 -0 -0 -0 -0 -0 -0 -0 -13 -13 -22
nan nan nan nan nan nan -0 nan nan nan nan nan nan nan nan nan nan nan nan nan nan nan nan nan nan nan nan nan nan nan nan nan nan nan nan nan nan nan nan nan nan nan nan nan nan nan nan nan nan nan nan nan nan nan nan nan nan nan nan nan nan nan nan nan nan nan nan nan nan nan -0 -0 -0 -0 -0 -0 -0 -0 -0 -0 -0 -0 -13 -33 -33 nan
nan nan nan nan nan nan nan nan nan nan nan nan nan nan nan nan nan nan nan nan nan nan nan nan nan nan nan nan nan nan nan nan nan nan nan nan nan nan nan nan nan nan nan nan nan nan nan nan nan nan nan nan nan nan nan nan nan nan nan nan nan nan nan nan nan nan nan nan nan nan nan -0 -0 -0 -0 -0 -0 -0 -0 -0 -0 -0 nan nan nan nan
nan nan nan nan nan nan nan nan nan nan nan nan nan nan nan nan nan nan nan nan nan nan nan nan nan nan nan nan nan nan nan nan nan nan nan nan nan nan nan nan nan nan nan nan nan nan nan nan nan nan nan nan nan nan nan nan nan nan nan nan nan nan nan nan nan nan nan nan nan nan nan nan nan nan nan nan nan nan -0 -0 -0 -0 nan nan nan nan
nan nan nan nan nan nan nan nan nan nan nan nan nan nan nan nan nan nan nan nan nan nan nan nan nan nan nan nan nan nan nan nan nan nan nan nan nan nan nan nan nan nan nan nan nan nan nan nan nan nan nan nan nan nan nan nan nan nan nan nan nan nan nan nan nan nan nan nan nan nan nan nan nan nan nan nan nan nan -0 -0 -0 -0 -10 nan nan nan
nan nan nan nan nan nan nan nan nan nan nan nan nan nan nan nan nan nan nan nan nan nan nan nan nan nan nan nan nan nan nan nan nan nan nan nan nan nan nan nan nan nan nan nan nan nan nan nan nan nan nan nan nan nan nan nan nan nan nan nan nan nan nan nan nan nan nan nan nan nan nan nan nan nan nan nan nan nan -0 -0 -0 -0 -0 nan nan nan
nan nan nan nan nan nan nan nan nan nan nan nan nan nan nan nan nan nan nan nan nan nan nan nan nan nan nan nan nan nan nan nan nan nan -0 nan nan nan nan nan nan nan nan nan nan nan nan nan nan nan nan nan nan nan nan nan nan nan nan nan nan nan nan nan nan nan nan nan nan nan nan nan nan nan nan nan nan nan -0 -0 -0 -0 -0 -0 -0 -13
nan nan nan nan nan nan nan nan nan nan nan nan nan nan nan nan nan nan nan nan nan nan nan nan nan nan nan nan nan nan nan nan nan nan -0 nan nan nan nan nan nan nan nan nan nan nan nan nan nan nan nan nan nan nan nan nan nan nan nan nan nan nan nan nan nan nan nan nan nan nan nan nan nan nan nan nan nan nan nan nan nan nan nan -0 -0 -6
nan nan nan nan nan nan nan nan nan nan nan nan nan nan nan nan nan nan nan nan nan nan nan nan nan nan nan nan nan nan nan nan nan nan -0 nan nan nan nan nan nan nan nan nan nan nan nan nan nan nan nan nan nan nan nan nan nan nan nan nan nan nan nan nan nan nan nan nan nan nan nan nan nan nan nan nan nan nan nan nan nan nan nan nan nan nan
nan nan nan nan nan nan nan nan nan nan nan nan nan nan nan nan nan nan nan nan nan nan nan nan nan nan nan nan nan nan nan nan nan nan nan nan nan nan nan nan nan nan nan nan nan nan nan nan nan nan nan nan nan nan nan nan nan nan nan nan nan nan nan nan nan nan nan nan nan nan nan nan nan nan nan nan nan nan nan nan nan nan nan nan nan nan
nan nan nan nan nan nan nan nan nan nan nan nan nan nan nan nan nan nan nan nan nan nan nan nan nan nan nan nan nan nan nan nan nan nan nan nan nan nan nan nan nan nan nan nan nan nan nan nan nan nan nan nan nan nan nan nan nan nan nan nan nan nan nan nan nan nan nan nan nan nan nan nan nan nan nan nan nan nan nan nan nan nan nan nan nan nan
nan nan nan nan nan nan nan nan nan nan nan nan nan nan nan nan nan nan nan nan nan nan nan nan nan nan nan nan nan nan nan nan nan nan nan nan nan nan nan nan nan nan nan nan nan nan nan nan nan nan nan nan nan nan nan nan nan nan nan nan nan nan nan nan nan nan nan nan nan nan nan nan nan nan nan nan nan nan nan nan nan nan nan nan nan nan
nan nan nan nan nan nan nan nan nan nan nan nan nan nan nan nan nan nan nan nan nan nan nan nan nan nan nan nan nan nan nan nan nan nan nan nan nan nan nan nan nan nan nan nan nan nan nan nan nan nan nan nan nan nan nan nan nan nan nan nan nan nan nan nan nan nan nan nan nan nan nan nan nan nan nan nan nan nan nan nan nan nan nan nan nan nan
nan nan nan nan nan nan nan nan nan nan nan nan nan nan nan nan nan nan nan nan nan nan nan nan nan nan nan nan nan nan nan nan nan nan nan nan nan nan nan nan nan nan nan nan nan nan nan nan nan nan nan nan nan nan nan nan nan nan nan nan nan nan nan nan nan nan nan nan nan nan nan nan nan nan nan nan nan nan nan nan nan nan nan nan nan nan
nan nan nan nan nan nan nan nan nan nan nan nan nan nan nan nan nan nan nan nan nan nan nan nan nan nan nan nan nan nan nan nan nan nan nan nan nan nan nan nan nan nan nan nan nan nan nan nan nan nan nan nan nan nan nan nan nan nan nan nan nan nan nan nan nan nan nan nan nan nan nan nan nan nan nan nan nan nan nan nan nan nan nan nan nan nan
nan nan nan nan nan nan nan nan nan nan nan nan nan nan nan nan nan nan nan nan nan nan nan nan nan nan nan nan nan nan nan nan nan nan nan nan nan nan nan nan nan nan nan nan nan nan nan nan nan nan nan nan nan nan nan nan nan nan nan nan nan nan nan nan nan nan nan nan nan nan nan nan nan nan nan nan nan nan nan nan nan nan nan nan nan nan
nan nan nan nan nan nan nan nan nan nan nan nan nan nan nan nan nan nan nan nan nan nan nan nan nan nan nan nan nan nan nan nan nan nan nan nan -0 -0 nan nan nan nan nan nan nan nan nan nan nan nan nan nan nan nan nan nan nan nan nan nan nan nan nan nan nan nan nan nan nan nan nan nan nan nan nan nan nan nan nan nan nan nan nan nan nan nan
nan nan nan nan nan nan nan nan nan nan nan nan nan nan nan nan nan nan nan nan nan nan nan nan nan nan nan nan nan nan nan nan nan nan nan nan nan nan nan nan nan nan nan nan nan nan nan nan nan nan nan nan nan nan nan nan nan nan nan nan nan nan nan nan nan nan nan nan nan nan nan nan nan nan nan nan nan nan nan nan nan nan nan nan nan nan
nan nan nan nan nan nan nan nan nan nan nan nan nan nan nan nan nan nan nan nan nan nan nan nan nan nan nan nan nan nan nan nan nan nan nan nan nan nan nan nan nan nan nan nan nan nan nan nan nan nan nan nan nan nan nan nan nan nan nan nan nan nan nan nan nan nan nan nan nan nan nan nan nan nan nan nan nan nan nan nan nan nan nan nan nan nan
nan nan nan nan nan nan nan nan nan nan nan nan nan nan nan nan nan nan nan nan nan nan nan nan nan nan nan nan nan nan nan nan nan nan nan nan nan nan nan nan nan nan nan nan nan nan nan nan nan nan nan nan nan nan nan nan nan nan nan nan nan nan nan nan nan nan nan nan nan nan nan nan nan nan nan nan nan nan nan nan nan nan nan nan nan nan
nan nan nan nan nan nan nan nan nan nan nan nan nan nan nan nan nan nan nan nan nan nan nan nan nan nan nan nan nan nan nan nan nan nan nan nan nan nan nan nan nan nan nan -0 -0 -0 -0 -0 -0 nan nan nan nan nan nan nan nan nan nan nan nan nan nan nan nan nan nan nan nan nan nan nan nan nan nan nan nan nan nan nan nan nan nan nan nan nan
nan nan nan nan nan nan nan nan nan nan nan nan nan nan nan nan nan nan nan nan nan nan nan nan nan nan nan nan nan nan nan nan nan nan nan nan nan nan nan nan nan nan nan nan nan nan nan nan nan nan -0 -1 nan nan nan nan nan nan nan nan nan nan nan nan nan nan nan nan nan nan nan nan nan nan nan nan nan nan nan nan nan nan nan nan nan nan
nan nan nan nan nan nan nan nan nan nan nan nan nan nan nan nan nan nan nan nan nan nan nan nan nan nan nan nan nan nan nan nan nan nan nan nan nan nan nan nan nan nan nan nan nan nan nan nan nan nan nan -0 -0 -0 nan nan nan nan nan nan nan nan nan nan nan nan nan nan nan nan nan nan nan nan nan nan nan nan nan nan nan nan nan nan nan nan
Wind_Speed
2 3 4 5 5 4 3 4 4 4 3 3 2 2 2 3 3 3 4 4 4 3 3 3 3 3 4 3 4 5 6 5 5 5 5 5 5 6 6 6 6 6 6 6 6 7 7 7 7 8 8 9 9 9 10 10 10 10 11 10 10 10 10 10 10 10 10 9 9 9 9 9 8 8 7 7 6 6 6 6 6 6 6 6 6 6
2 3 3 4 4 3 3 3 4 4 4 3 2 2 2 3 3 2 3 4 4 3 2 2 3 3 4 4 3 4 5 5 5 5 5 5 5 6 6 6 5 5 5 5 6 6 7 7 7 8 8 8 9 9 9 9 9 10 10 9 9 9 9 9 10 9 9 9 9 9 8 8 8 7 7 7 6 6 6 6 6 6 6 6 6 6
3 3 3 3 3 3 2 3 3 3 3 3 2 2 2 3 3 2 2 3 3 3 3 2 2 3 4 4 3 3 5 5 5 6 6 5 6 6 6 5 5 5 5 5 5 6 6 6 7 7 7 8 8 8 8 8 8 8 8 8 8 8 8 9 9 9 9 9 8 8 8 8 7 7 7 7 6 6 6 6 6 6 6 6 6 6
3 3 3 2 2 2 2 2 3 3 3 3 2 2 2 3 2 2 1 2 2 3 3 3 3 3 3 3 3 2 4 6 6 6 6 6 6 6 5 5 5 5 5 5 5 6 6 6 6 6 6 7 7 7 7 7 7 7 7 7 7 7 7 8 8 8 8 8 8 8 7 7 7 7 7 6 6 6 6 6 6 6 6 6 6 6
3 3 3 2 1 1 2 2 3 3 3 3 2 2 3 3 2 1 1 2 2 3 3 3 3 3 3 3 3 2 4 6 6 6 6 6 6 6 6 5 5 5 5 5 5 5 5 5 5 5 5 5 5 5 5 5 5 5 5 6 6 6 6 6 7 7 7 7 7 7 7 7 7 6 6 6 6 6 6 6 6 6 6 6 6 6
2 2 2 1 1 1 1 2 2 3 2 2 2 2 3 2 2 1 2 2 2 2 2 2 3 3 3 3 4 4 5 6 6 6 6 6 6 6 6 5 5 5 5 5 5 5 5 4 4 4 4 4 4 4 4 4 4 4 4 5 5 5 5 5 6 6 6 6 6 6 6 6 6 6 6 6 6 6 6 6 6 6 6 6 6 6
2 1 1 1 1 2 2 1 1 2 2 2 2 2 2 2 2 2 2 2 2 2 1 1 2 3 4 4 5 6 5 6 7 7 6 6 6 5 5 5 5 5 5 4 4 4 3 3 3 3 3 3 3 3 3 3 4 4 4 4 4 4 4 5 5 5 5 5 6 6 6 6 6 5 5 5 5 6 6 6 6 6 6 6 6 6
2 1 1 1 1 2 2 1 1 1 1 2 2 2 2 2 2 2 2 2 2 2 1 1 2 2 3 4 5 5 4 4 5 6 6 6 6 5 5 5 5 4 4 4 3 3 2 2 2 2 2 2 2 3 3 4 4 4 4 4 4 4 4 4 4 4 5 5 5 5 5 5 5 5 5 5 5 5 5 6 6 6 6 6 6 6
4 3 1 1 2 2 2 1 0 0 0 1 2 2 2 1 1 1 2 2 3 2 2 1 1 2 3 3 4 4 4 3 3 4 5 4 5 5 5 5 5 4 4 3 3 2 2 1 1 1 1 2 2 3 4 4 4 4 4 4 3 3 3 4 4 4 4 5 5 5 5 5 5 5 4 4 4 4 5 5 5 6 6 6 6 6
4 4 2 1 1 1 2 1 1 0 1 1 2 2 2 2 2 1 1 1 2 2 2 2 1 1 2 3 4 4 4 4 4 6 6 5 5 6 6 6 5 5 5 4 4 3 2 2 1 1 1 2 3 4 4 4 4 4 3 3 3 3 3 3 4 4 4 4 4 4 5 5 5 4 4 4 4 4 4 4 4 5 5 5 6 6
4 3 3 2 1 1 1 1 1 1 0 1 2 2 1 2 2 3 2 1 0 1 2 2 1 1 1 2 3 4 4 3 4 5 6 7 7 7 6 6 6 6 6 5 5 4 4 4 3 2 2 3 3 3 4 3 3 3 3 3 3 4 4 3 3 3 4 4 4 4 4 4 4 4 4 4 4 4 4 4 4 4 4 5 5 5
3 3 2 2 1 1 1 1 1 1 1 2 2 1 0 0 1 2 3 3 1 0 1 1 1 1 1 1 2 2 3 2 2 2 3 4 5 5 5 5 5 6 5 5 5 5 5 5 4 4 3 3 3 3 3 2 2 3 3 4 4 4 4 3 3 3 3 3 4 4 4 4 4 4 4 4 4 4 4 4 3 3 4 4 4 5
2 2 2 2 2 2 2 2 1 1 1 2 2 2 2 1 1 2 2 2 1 1 0 1 1 1 1 1 1 1 2 1 1 1 2 2 3 4 3 3 3 3 4 4 4 4 5 5 5 4 4 3 3 3 2 2 2 3 4 4 4 4 4 3 3 3 3 3 4 4 4 4 4 4 4 4 4 4 4 3 3 3 3 4 4 4
2 2 2 2 2 2 2 2 3 3 3 3 2 2 2 2 1 2 2 1 1 0 0 1 1 1 1 1 1 1 1 1 1 1 2 2 2 3 2 2 2 2 2 2 2 2 3 3 3 3 4 3 3 2 2 2 2 3 3 4 4 3 3 3 2 2 3 3 4 4 4 4 4 4 4 4 4 4 3 3 3 3 3 4 4 4
3 3 3 3 3 2 2 3 3 3 3 2 2 1 2 1 1 2 3 2 1 0 1 2 2 1 1 1 1 1 1 1 1 1 1 1 2 2 2 2 2 2 2 2 1 2 2 2 2 2 2 2 2 1 1 1 2 3 3 3 3 3 2 2 2 2 3 3 3 4 4 4 4 4 4 4 4 4 4 3 3 3 3 4 4 4
4 4 4 4 4 3 2 2 3 3 2 2 2 2 3 2 2 2 3 3 2 1 2 2 2 1 2 1 1 1 1 1 2 2 1 1 2 2 2 2 2 2 2 1 1 1 1 1 1 1 2 2 2 2 2 2 3 3 3 3 3 2 2 2 2 2 3 3 3 3 3 3 3 4 4 4 4 4 4 4 4 4 4 4 4 4
3 3 4 4 3 3 2 2 2 2 2 2 1 2 2 3 3 3 3 3 2 2 2 2 2 1 1 1 1 1 1 1 2 2 1 1 1 2 2 1 1 1 2 2 2 1 1 1 1 1 2 3 3 3 3 3 3 3 3 3 3 2 2 2 2 2 3 3 3 3 3 3 3 3 3 4 4 4 4 4 4 4 4 4 4 4
3 3 3 4 3 3 2 2 2 2 2 2 2 1 1 1 2 2 3 3 3 3 2 2 2 2 1 1 1 1 1 1 2 2 1 1 1 1 2 1 0 0 1 2 2 1 1 1 2 2 3 3 4 3 3 3 3 3 3 3 3 2 2 2 2 2 2 2 2 2 2 2 2 2 3 3 3 3 3 3 3 3 4 4 4 4
3 2 3 3 3 3 2 2 2 3 3 3 3 3 2 1 1 2 2 2 3 3 3 3 2 2 2 2 1 1 0 1 2 2 1 1 1 1 2 1 1 0 1 2 2 1 1 1 3 4 5 4 4 4 3 4 4 4 4 3 3 2 2 2 2 2 2 2 2 2 2 2 2 2 2 3 3 3 3 2 2 2 3 4 4 4
3 3 3 3 3 3 2 3 3 4 5 4 4 4 3 2 2 2 2 2 2 2 2 3 2 2 2 2 1 1 0 1 2 3 1 1 2 2 2 2 1 1 2 2 2 1 1 2 3 4 5 4 4 4 4 4 4 4 4 4 3 3 2 2 2 1 1 1 2 2 2 2 2 2 2 3 3 4 3 3 3 3 3 4 4 4
4 4 4 4 4 4 3 4 4 5 5 5 5 4 3 3 3 2 2 2 2 2 2 2 2 2 2 2 1 1 1 1 2 3 1 1 2 2 1 1 1 1 1 2 2 1 1 2 2 3 4 4 4 4 4 4 4 4 4 4 3 3 2 2 2 1 1 1 2 2 2 2 2 2 3 3 3 4 4 4 4 4 4 4 4 4
4 4 4 4 4 4 4 4 5 6 6 6 6 5 4 4 4 3 2 2 2 3 3 2 2 1 1 1 0 0 1 0 2 3 2 0 2 2 1 1 1 1 1 2 2 2 2 2 2 3 4 4 4 4 4 4 5 5 4 4 3 3 2 2 2 1 1 2 2 2 2 2 3 3 3 3 4 4 4 4 4 5 5 4 4 4
4 4 4 4 4 3 3 4 5 5 5 5 5 4 4 4 4 4 4 3 3 3 2 2 1 1 1 1 1 1 1 0 1 2 3 0 2 2 1 1 1 1 2 2 2 2 3 2 2 2 3 4 5 5 5 5 5 5 4 3 3 3 3 2 2 2 2 2 3 3 3 3 3 3 3 3 4 4 4 4 4 4 4 4 5 5
3 4 4 4 3 2 2 4 4 4 3 3 3 2 2 3 3 3 3 3 3 3 3 2 2 2 1 1 1 1 1 1 1 2 2 1 2 2 1 1 1 1 2 2 2 2 3 2 2 2 3 4 5 5 5 5 5 5 4 3 3 3 2 2 1 2 2 3 3 3 4 4 4 4 4 4 4 4 4 4 4 4 4 4 5 5
3 3 3 4 4 4 4 5 5 5 4 4 4 4 4 5 5 5 4 4 4 3 3 3 2 2 2 1 1 1 1 1 1 1 2 1 1 2 1 1 1 1 2 2 2 2 2 2 2 2 2 4 5 6 6 5 5 4 3 3 2 1 1 1 1 2 3 3 4 4 4 4 4 4 4 4 4 4 4 4 4 4 4 4 5 5
5 5 5 6 7 7 8 9 9 9 8 6 5 5 5 5 5 5 4 3 3 3 4 3 2 1 2 2 1 1 1 0 0 1 2 2 1 1 1 1 1 1 2 2 2 2 2 2 2 3 3 3 5 6 5 3 2 2 2 2 1 1 1 1 2 2 3 4 4 4 4 4 4 4 4 4 4 4 4 4 4 4 4 4 4 4
9 9 9 9 10 10 11 12 12 12 12 10 9 7 6 5 5 4 3 2 2 3 3 2 1 0 1 1 1 1 1 0 0 0 1 2 1 0 1 0 1 1 2 2 2 1 1 1 2 2 3 3 4 5 5 4 3 2 3 2 2 1 1 2 2 3 3 4 4 4 4 4 4 4 4 4 4 4 4 4 4 4 4 4 3 3
11 11 10 10 11 12 12 13 13 13 13 13 12 11 7 5 4 4 3 3 3 3 3 2 2 1 0 1 2 2 1 1 1 1 1 2 1 1 1 0 0 0 1 2 2 2 1 1 2 2 3 3 3 4 5 6 6 5 4 3 2 2 2 2 2 3 4 4 4 4 4 4 4 4 4 4 4 4 4 4 4 4 3 2 0 1
10 10 9 9 9 10 11 11 12 12 13 13 12 10 6 4 4 4 4 3 3 3 3 2 2 2 1 1 1 2 2 1 1 2 2 2 1 1 1 0 0 0 0 1 2 2 2 2 1 2 2 3 3 3 4 6 6 5 5 4 3 3 2 3 3 3 4 4 5 5 5 4 4 4 4 4 4 4 4 5 4 3 2 1 1 1
8 9 8 8 8 7 7 6 7 9 11 11 10 8 4 3 3 4 4 4 4 3 3 2 2 2 1 1 1 2 2 2 1 2 2 2 1 1 0 0 1 1 0 1 2 2 3 2 2 1 2 2 3 3 3 3 4 4 4 4 3 3 3 3 4 4 4 5 5 5 5 5 5 5 4 4 4 5 5 5 4 2 1 2 2 2
5 5 5 5 6 5 5 4 4 3 5 6 6 5 4 4 3 4 4 4 4 4 3 3 2 2 2 2 1 0 2 2 2 2 3 2 2 1 1 1 1 1 0 1 2 1 2 2 2 2 2 2 2 2 2 2 2 3 3 3 3 3 3 4 4 5 5 5 6 6 6 6 5 5 5 5 5 5 5 5 4 2 2 2 2 2
3 4 3 3 3 4 4 4 4 4 3 4 4 4 4 4 4 4 4 4 3 3 3 3 3 2 2 2 2 2 2 2 2 3 3 2 2 1 1 2 1 1 1 1 2 2 1 1 2 2 2 2 2 2 2 2 2 2 2 2 2 2 3 4 4 4 5 5 6 6 6 6 5 5 5 5 5 5 5 6 5 3 2 2 3 3
3 3 3 3 3 3 3 3 3 3 3 3 3 3 3 3 3 4 3 3 3 3 4 4 3 2 2 2 2 2 2 2 3 4 5 3 2 1 1 2 1 1 1 1 1 2 2 1 1 2 2 2 2 2 2 1 1 1 1 1 1 2 3 3 3 3 4 4 5 5 5 5 5 5 5 5 5 5 5 5 5 4 3 3 3 3
3 3 3 3 3 3 3 3 3 3 3 3 3 2 2 2 2 3 3 2 2 3 4 4 4 3 3 2 1 1 2 2 4 5 5 3 2 2 1 1 1 1 1 1 1 1 1 0 1 1 2 2 2 2 2 1 1 1 0 0 1 1 2 2 2 2 3 3 3 3 4 4 5 5 5 4 4 4 4 5 5 5 4 3 3 3
3 3 3 3 3 3 3 3 3 2 3 2 2 2 2 2 2 2 2 2 1 2 2 3 4 4 4 3 2 2 3 3 4 6 6 3 2 2 2 2 2 2 2 1 1 1 1 0 0 0 1 2 2 2 2 1 1 1 1 1 1 1 1 1 1 2 2 2 2 2 2 2 3 3 4 4 4 4 4 4 5 5 5 4 3 3
3 2 2 2 2 2 1 1 1 1 2 2 1 1 1 1 1 1 1 1 1 1 1 1 2 3 3 4 4 3 3 3 4 6 6 4 3 3 2 2 2 2 3 2 2 1 1 0 0 0 1 1 2 2 2 2 2 1 1 1 1 1 1 1 0 0 1 2 2 2 2 2 2 2 3 4 5 5 5 5 5 5 5 4 4 3
2 2 1 1 1 1 1 0 0 0 1 1 1 1 1 1 1 1 1 1 1 1 1 2 1 1 1 2 3 3 3 2 3 4 5 4 3 3 2 2 2 3 3 3 2 2 2 1 1 1 0 1 1 2 2 3 3 2 2 2 1 1 1 0 1 1 0 1 1 2 2 1 1 2 3 4 5 5 6 6 5 5 5 5 5 5
2 1 1 0 0 1 1 1 1 1 1 1 1 1 1 1 1 1 2 2 2 2 2 2 2 2 2 2 2 2 2 2 2 3 5 4 3 3 3 2 2 2 3 3 3 3 3 2 0 0 1 2 2 2 2 2 2 2 2 2 2 2 2 1 0 1 1 1 2 2 2 1 1 2 2 3 3 3 4 4 4 4 5 5 5 5
2 2 2 1 1 1 2 2 1 1 1 1 2 2 2 2 2 2 2 2 2 2 2 2 2 2 2 2 2 2 3 2 2 2 3 4 3 3 3 3 2 2 2 2 2 3 3 2 2 2 1 2 2 2 2 1 1 2 2 3 3 2 2 1 1 1 1 1 1 2 1 1 1 1 1 2 2 2 2 3 3 3 3 3 4 5
2 2 2 2 2 2 2 2 1 1 1 2 2 2 2 2 2 2 2 2 2 2 2 2 2 1 1 2 2 2 2 2 2 2 2 3 3 3 3 3 3 3 2 2 2 2 3 3 3 3 2 2 1 2 1 1 1 2 2 2 2 2 2 1 1 1 1 1 0 1 1 1 1 1 1 1 1 1 1 2 2 2 1 1 1 2
3 2 2 2 2 2 1 1 1 2 2 2 2 2 2 2 2 2 1 2 2 2 1 2 2 2 2 2 1 1 1 1 2 2 2 3 3 3 3 3 3 3 3 2 2 2 3 3 3 2 2 2 2 2 2 2 3 3 3 2 3 3 3 2 0 1 1 0 1 1 1 1 1 1 1 2 2 2 2 2 2 2 2 1 1 1
3 3 2 2 2 1 1 1 2 2 2 2 2 2 1 2 2 2 2 2 1 1 2 1 2 2 2 2 2 1 1 0 1 2 3 3 3 3 3 3 3 3 3 3 2 1 2 3 3 3 3 2 2 3 3 3 3 3 3 3 3 4 4 2 1 1 0 0 1 1 1 1 1 2 2 2 3 3 3 3 3 4 3 2 2 3
3 2 2 2 2 2 2 2 2 2 2 2 2 1 1 1 2 2 3 2 2 1 1 1 2 2 1 1 2 2 2 2 1 1 1 2 3 3 3 3 3 3 4 3 2 2 2 2 3 3 3 3 3 3 4 4 3 2 2 3 3 3 2 2 2 1 1 1 1 2 1 2 2 2 2 3 3 3 2 3 5 5 5 3 3 3
2 2 2 2 2 2 2 1 1 1 2 2 2 1 1 1 1 2 2 2 2 2 1 1 2 2 2 1 2 3 3 3 2 1 1 3 4 3 3 2 2 3 4 4 3 2 1 2 3 3 3 3 3 4 4 4 3 3 3 3 3 3 3 2 2 1 1 1 2 2 2 2 1 1 2 2 2 2 2 2 3 3 4 3 3 3
2 2 2 2 2 2 2 2 2 2 2 2 2 2 1 1 1 2 2 3 2 2 1 1 2 2 1 0 1 2 3 3 3 2 1 1 3 4 4 3 3 3 3 4 4 3 3 2 3 3 3 3 4 4 5 4 4 4 4 4 4 4 5 3 2 2 2 2 2 2 2 1 0 0 1 2 2 2 2 2 3 3 3 3 3 3
2 2 2 2 2 2 3 3 2 2 2 2 1 1 1 1 1 2 2 3 2 2 1 1 2 2 1 1 1 1 2 2 2 2 2 2 1 0 2 3 3 3 3 3 3 3 3 3 3 2 2 3 4 5 5 4 4 4 5 4 3 3 4 3 3 3 3 3 3 2 1 1 1 0 1 2 2 3 3 3 3 3 4 3 3 3
3 3 3 2 2 2 3 3 3 2 2 2 1 1 1 1 1 2 2 2 2 2 1 2 2 2 2 2 1 1 0 1 1 2 2 2 2 1 1 1 3 3 3 3 3 3 3 3 3 3 2 3 4 5 5 4 4 4 4 3 2 3 3 3 3 3 3 3 2 2 1 1 1 0 1 2 2 3 3 3 3 3 4 3 3 3
4 4 3 3 3 3 2 3 3 3 3 2 2 2 1 2 2 2 2 2 2 2 2 2 2 2 2 2 2 2 2 1 1 1 2 2 1 1 1 0 1 2 3 3 4 4 4 5 5 4 4 4 4 5 4 4 4 4 3 3 3 3 4 3 3 2 2 2 2 2 2 1 1 1 2 2 2 3 3 3 3 3 4 4 4 4
4 4 4 3 3 3 3 3 3 3 3 3 2 2 1 2 3 3 2 2 2 2 3 3 3 3 2 2 2 2 2 1 1 1 2 2 1 1 1 1 1 1 0 2 3 3 4 5 6 7 6 6 6 5 5 4 4 4 3 3 3 3 4 3 3 2 2 2 2 2 2 2 2 2 2 2 3 3 3 3 3 3 4 4 4 4
4 4 4 4 4 3 3 3 3 3 3 3 3 2 2 1 1 1 2 2 2 2 3 3 3 3 3 3 2 2 2 2 1 1 2 1 1 0 0 1 1 1 1 1 1 1 1 2 4 6 8 9 9 7 6 5 4 3 3 3 3 3 4 3 3 2 2 2 2 2 2 2 2 2 2 2 3 4 3 3 3 3 3 3 3 4
4 4 4 4 4 4 3 3 4 4 4 3 3 3 2 2 1 1 1 1 2 2 3 3 3 3 3 3 3 3 4 3 2 2 2 1 1 1 1 1 2 2 1 1 1 1 1 1 2 3 6 9 11 10 7 5 4 4 4 3 3 3 3 3 3 2 2 2 2 2 2 2 1 2 2 2 3 3 3 3 3 3 3 3 3 3
Wind_Direction
130 139 145 148 145 143 149 146 140 133 129 118 104 92 86 83 75 66 60 56 53 51 51 44 37 30 23 38 69 89 95 95 95 94 92 92 91 91 90 89 87 85 82 80 79 78 77 78 78 77 76 73 70 66 63 60 58 55 53 51 50 48 47 46 45 45 45 44 43 42 41 38 34 30 26 22 17 13 9 6 3 360 356 351 346 339
124 129 141 147 144 139 141 142 139 134 134 127 118 107 102 95 84 68 58 53 49 44 41 35 36 35 27 15 52 93 101 102 102 101 100 98 97 96 95 94 92 90 88 86 85 84 83 82 81 80 78 74 70 67 63 60 57 55 52 50 48 46 44 43 42 40 39 38 36 35 32 29 25 20 15 11 7 3 360 358 356 354 350 345 339 333
138 137 146 142 135 131 132 134 126 115 116 115 113 109 109 101 89 72 56 51 46 40 32 24 31 37 31 6 34 97 106 107 106 105 105 103 103 102 102 101 99 98 96 93 91 90 88 86 84 81 79 75 71 67 63 60 57 54 52 49 47 45 43 41 39 37 35 33 31 28 24 20 15 10 5 0 356 353 351 349 348 346 342 337 331 326
146 146 151 133 112 100 101 114 108 97 90 90 88 86 88 90 84 70 51 58 55 45 32 24 29 36 33 4 5 65 110 111 111 110 110 110 111 110 110 110 110 108 105 100 97 94 92 88 84 81 77 73 70 66 62 59 57 54 52 50 47 45 43 40 37 35 32 29 25 21 17 12 6 1 356 352 348 344 341 338 337 335 331 327 323 320
148 144 144 129 107 87 72 88 96 97 89 82 74 66 67 74 74 60 31 55 58 52 36 29 32 37 37 12 6 35 98 109 111 111 114 115 116 118 119 118 116 114 109 104 99 96 92 87 83 77 72 68 64 61 58 56 55 54 54 52 49 46 44 40 37 32 28 24 20 15 10 4 359 354 349 345 340 335 331 328 326 323 321 318 315 313
138 124 120 115 110 103 93 92 102 106 97 83 67 60 60 63 62 49 30 43 48 47 36 32 34 36 35 22 23 38 69 90 96 99 101 108 114 118 119 116 113 110 105 101 97 93 89 83 77 70 63 57 53 51 49 49 51 53 55 54 51 47 43 39 34 29 24 19 14 9 3 357 353 348 344 339 334 330 325 322 318 315 312 310 309 308
121 91 88 89 95 97 97 95 106 115 119 106 83 66 58 57 53 49 43 40 37 34 28 28 33 33 30 22 23 32 50 66 73 75 76 85 94 102 106 105 102 100 97 94 91 86 82 76 68 60 52 45 42 41 40 43 47 50 53 52 49 44 38 32 27 22 17 12 6 1 356 351 346 343 339 336 332 328 324 320 316 312 309 306 305 304
133 119 108 110 107 101 95 91 75 73 121 127 117 97 70 55 45 39 37 35 30 26 25 26 28 26 21 14 15 22 37 57 62 62 62 65 70 77 85 88 88 88 85 83 79 75 71 66 58 51 41 39 41 43 43 45 46 47 48 46 41 34 27 21 15 11 6 2 357 353 348 344 340 337 336 334 332 329 326 321 317 312 308 306 304 303
144 145 143 128 121 120 120 117 85 26 16 117 123 123 117 98 61 32 26 25 22 21 29 40 37 21 3 4 7 12 21 53 71 73 68 65 63 64 69 69 71 71 69 63 57 52 47 42 40 41 45 50 53 54 52 49 47 44 40 33 25 17 9 3 359 356 354 351 349 345 341 338 335 333 334 334 333 331 327 323 319 315 311 309 307 305
146 148 141 113 97 112 127 128 118 56 352 77 101 113 127 127 120 100 63 23 8 10 27 46 53 30 348 355 2 9 12 36 61 71 68 62 63 65 61 56 55 53 52 46 40 34 28 24 24 35 56 62 63 62 58 51 43 34 21 8 357 347 341 340 340 342 342 342 341 339 337 335 333 332 332 332 331 330 328 326 323 320 317 314 312 310
146 145 134 116 91 70 86 104 114 114 70 72 69 68 76 110 130 138 146 160 338 355 15 30 42 43 2 352 355 360 7 20 36 44 46 45 48 50 47 44 42 42 42 38 35 31 28 23 23 33 54 63 64 63 59 47 31 11 351 336 326 320 317 319 324 328 332 335 336 335 335 333 332 330 329 328 328 327 327 328 327 327 325 321 318 315
144 142 133 126 116 99 85 85 85 88 89 89 89 83 34 42 122 138 149 159 164 78 6 12 20 33 41 359 348 351 4 14 17 15 19 26 26 25 25 27 28 28 29 29 29 29 28 26 26 31 50 58 59 55 52 34 7 341 324 315 308 303 301 304 311 318 326 330 332 332 332 331 329 327 325 324 323 324 326 329 333 334 333 329 325 321
129 129 130 128 129 130 125 120 117 116 135 143 155 167 185 193 142 120 126 135 142 156 184 23 14 11 12 14 3 354 359 9 9 8 17 20 15 9 2 5 7 9 10 17 20 20 22 23 23 27 40 46 45 40 32 8 340 320 309 302 296 292 291 294 302 313 323 327 329 329 329 327 325 322 320 319 319 321 325 330 335 338 338 334 330 327
130 130 136 142 147 149 149 150 154 161 177 179 175 167 163 152 127 109 102 93 88 290 102 70 42 358 338 3 11 5 348 15 27 33 36 28 14 2 348 349 350 355 5 8 4 2 8 15 15 15 20 25 29 29 13 345 321 307 299 292 287 284 283 289 300 313 321 325 325 324 323 321 319 317 315 316 318 322 326 331 334 336 336 333 331 330
153 156 163 169 169 167 168 166 168 170 172 166 151 127 105 102 105 107 106 111 117 67 50 55 35 3 333 340 356 360 346 54 70 69 49 19 3 356 347 346 345 352 12 8 342 329 353 8 3 350 348 355 353 340 315 296 291 290 287 283 280 279 281 290 302 312 318 318 318 317 317 316 315 315 316 318 322 326 329 332 333 333 332 330 330 330
164 168 174 177 177 176 176 169 164 158 146 138 132 129 126 130 127 119 116 127 130 110 84 78 54 3 322 323 360 20 10 64 89 99 100 341 345 354 358 2 357 349 351 341 308 298 327 347 346 331 324 315 307 299 290 279 279 281 281 279 277 277 279 289 299 305 309 309 309 310 312 313 314 316 318 323 327 331 334 334 333 331 329 327 327 327
166 170 173 172 176 181 180 153 139 135 132 133 133 133 133 138 134 125 120 125 119 111 110 116 121 137 286 301 330 12 26 76 94 101 100 297 323 345 358 18 6 331 318 303 287 284 316 328 328 316 299 292 291 290 287 281 279 278 278 277 276 274 275 281 288 294 299 302 304 306 309 311 315 318 321 326 329 332 335 334 332 330 325 324 323 322
166 169 165 169 175 178 170 150 137 130 131 132 127 111 91 103 113 118 120 122 123 124 127 131 141 158 183 251 276 305 16 89 100 98 80 286 300 332 357 18 37 301 297 287 282 281 310 314 310 305 300 295 294 291 285 280 278 278 278 276 272 268 265 268 276 284 294 300 302 303 303 306 311 315 320 321 322 324 328 326 324 321 321 320 320 320
174 171 164 166 168 168 166 169 162 156 152 155 145 129 103 101 105 110 114 122 129 135 139 144 156 170 176 206 231 259 324 116 102 97 89 278 291 320 358 360 12 349 293 278 277 288 317 306 308 309 310 306 300 292 284 280 280 279 278 273 266 258 251 253 261 274 289 299 300 297 296 297 299 300 301 303 304 305 307 305 302 308 321 329 331 330
178 184 179 162 153 153 176 193 185 174 166 159 146 134 130 133 123 111 109 114 122 130 135 145 163 184 195 210 235 273 282 103 96 95 107 260 287 312 356 3 10 355 304 282 281 294 319 310 308 308 310 306 300 291 282 280 280 279 277 270 260 248 236 235 238 250 269 278 283 285 288 288 287 285 285 290 295 300 305 307 310 316 325 336 341 342
178 198 204 172 155 157 184 194 190 178 163 146 134 128 133 134 132 130 130 122 119 120 123 143 165 183 187 183 205 278 310 102 103 103 107 289 294 305 348 11 27 12 307 288 290 305 323 313 308 307 309 307 301 292 284 282 280 278 273 263 249 232 217 214 218 228 246 259 267 273 276 276 277 278 279 282 289 295 301 305 309 314 319 325 331 334
178 195 199 180 170 170 178 176 174 170 161 149 145 147 151 151 155 160 162 146 141 141 142 150 157 158 145 145 150 315 320 93 121 120 111 340 302 301 334 4 34 19 290 286 294 312 323 319 311 309 313 314 307 296 287 282 278 274 266 252 235 217 205 205 212 228 250 260 264 264 264 264 266 268 271 275 280 285 291 296 300 304 307 308 310 311
170 178 175 179 180 176 159 151 155 160 161 154 154 157 161 160 162 165 166 156 147 139 132 122 107 93 86 84 46 358 331 352 110 116 112 162 273 286 322 338 11 353 276 285 301 319 324 320 313 310 315 317 311 299 287 278 271 263 253 236 217 202 198 204 216 235 252 258 259 258 257 256 257 258 261 265 270 274 279 283 287 290 292 293 294 294
154 157 156 167 171 161 130 132 136 139 131 115 107 103 102 107 112 117 120 120 119 117 116 107 91 70 49 61 46 19 351 7 72 99 114 172 237 268 319 349 3 331 279 289 310 325 328 320 313 310 316 320 315 304 289 275 262 250 234 217 203 194 193 207 228 250 260 263 261 258 255 253 252 252 254 256 261 265 268 273 276 278 280 281 281 281
131 135 140 150 153 150 140 138 138 135 125 111 102 97 93 91 91 90 88 89 95 99 98 87 74 47 6 9 10 358 338 343 52 101 121 161 230 271 320 355 358 308 280 295 319 340 340 325 319 319 324 328 325 317 298 274 253 232 209 190 178 172 182 244 284 289 286 280 273 266 260 254 252 250 251 253 256 261 265 269 272 274 276 276 276 275
118 123 130 140 146 147 144 141 140 139 134 128 123 119 115 109 102 95 85 84 89 93 89 80 67 13 333 334 324 308 294 294 42 111 126 136 189 283 315 358 360 310 289 301 321 347 352 329 321 321 326 330 330 327 318 295 250 189 157 141 123 89 34 348 328 315 305 296 287 278 268 259 253 250 249 252 256 260 266 269 272 274 275 276 276 276
113 119 127 135 139 141 140 139 139 138 136 134 134 134 130 120 110 103 102 111 110 104 101 104 109 318 327 319 299 284 273 219 189 162 137 119 120 276 292 350 8 327 302 303 312 328 342 324 317 316 317 321 328 336 352 3 27 68 90 85 73 49 20 356 337 325 314 305 296 288 277 265 257 252 251 253 258 262 267 270 272 274 276 277 280 286
104 109 115 126 131 134 134 137 138 139 138 138 139 139 134 122 118 127 155 156 131 110 108 123 138 157 205 257 273 280 285 242 209 188 153 109 114 233 263 308 35 13 311 305 310 318 334 313 302 301 304 309 319 338 359 11 20 30 38 45 44 35 21 4 349 336 326 317 310 303 293 281 270 261 257 259 261 264 268 270 272 273 276 278 313 45
77 78 81 96 108 116 124 130 136 140 141 142 143 141 133 123 129 146 167 155 131 112 114 128 138 146 163 235 287 301 298 264 210 179 147 112 126 232 246 358 48 46 26 336 336 338 342 318 296 292 298 310 322 337 346 360 7 12 10 18 25 29 29 20 8 353 340 331 323 316 309 300 290 280 274 271 271 271 272 272 271 270 263 160 121 111
50 52 50 54 64 76 90 103 123 137 144 145 143 138 121 114 123 139 149 142 131 122 126 130 133 133 135 86 4 334 305 281 223 174 148 133 153 222 200 63 41 23 43 45 24 360 338 322 308 300 303 320 328 336 339 350 354 355 353 1 11 23 33 29 19 5 351 339 329 321 314 307 300 294 288 284 282 280 278 276 273 263 137 127 128 128
46 51 49 42 43 48 53 52 64 94 124 126 124 118 105 103 113 127 137 140 136 131 132 135 140 142 138 118 104 343 285 271 220 176 154 143 152 169 139 108 67 13 360 87 86 52 329 314 313 320 335 335 333 332 334 346 350 348 342 351 2 15 26 26 20 10 356 343 333 323 315 310 304 299 294 290 286 284 281 279 274 258 129 136 142 151
60 62 60 52 49 50 53 52 49 49 58 70 78 86 94 105 118 131 142 145 139 132 129 134 138 143 146 143 154 182 235 239 204 178 155 138 132 133 124 115 99 51 341 89 116 132 166 276 299 317 337 333 328 326 328 347 355 354 346 358 357 358 6 15 15 9 357 345 336 329 322 317 311 305 299 292 287 283 279 277 271 256 166 157 166 179
70 65 58 55 56 58 59 59 58 58 58 55 55 61 76 101 123 137 145 146 140 133 129 131 134 136 140 143 167 201 236 236 202 180 161 135 118 115 111 105 102 85 20 49 89 120 144 208 276 306 320 317 315 316 319 336 352 4 359 4 346 333 340 2 8 3 352 343 337 332 330 330 327 321 311 300 290 282 276 274 267 255 220 180 179 191
71 62 53 52 52 53 54 57 61 65 66 60 56 56 64 87 115 133 143 142 137 135 136 139 141 144 143 143 182 247 263 246 203 182 167 140 123 125 126 126 126 124 98 62 55 66 99 170 272 304 312 311 309 307 307 313 323 339 8 359 307 306 317 348 356 351 339 338 332 327 329 334 336 335 327 318 305 292 283 278 272 266 258 216 193 190
73 63 51 48 50 51 48 50 57 67 75 67 59 53 60 78 100 122 135 134 131 129 135 142 147 150 151 152 168 214 252 237 200 183 171 151 134 129 132 158 159 146 125 120 105 91 86 30 277 306 329 320 314 308 301 295 294 290 259 217 229 252 278 319 338 337 331 330 320 313 318 325 332 334 333 330 325 319 311 303 295 288 283 262 236 207
85 75 57 52 58 65 60 46 49 63 84 83 71 54 53 70 86 100 107 106 108 111 111 121 135 145 151 153 163 181 214 211 193 181 173 157 140 133 139 171 168 151 131 131 129 127 125 104 61 44 33 324 306 302 302 308 317 323 310 276 253 247 251 227 166 16 336 322 311 304 309 316 322 324 326 335 339 339 337 329 322 314 304 291 278 257
105 104 79 61 75 95 109 83 22 50 112 114 112 101 73 73 74 74 68 58 62 75 89 85 83 91 113 133 147 162 181 178 179 177 172 154 140 135 140 162 166 159 144 143 143 139 122 98 44 9 28 227 250 275 297 320 334 340 327 313 298 287 275 229 139 128 134 283 284 287 293 304 317 323 320 334 341 344 343 339 335 331 326 317 304 290
131 145 163 167 153 152 155 186 214 216 180 148 138 128 106 88 75 65 59 53 53 56 66 69 64 55 52 68 88 109 121 127 151 169 167 152 141 134 132 141 162 174 165 153 146 139 127 122 113 295 276 250 250 259 283 317 329 326 308 302 296 290 281 268 187 161 176 235 265 277 283 312 339 333 321 332 341 346 343 338 336 338 341 332 319 305
159 177 195 198 192 186 186 197 201 194 162 139 129 121 109 96 84 72 61 61 58 55 55 62 62 55 43 46 63 88 102 111 130 154 159 155 151 145 137 142 159 176 172 149 138 135 136 148 165 189 221 252 267 275 287 291 287 288 297 309 311 303 283 255 212 187 184 214 267 289 302 333 343 328 312 327 344 348 337 325 323 333 352 346 331 317
173 187 203 201 193 187 189 186 170 147 127 115 107 103 105 101 92 82 80 79 77 72 67 64 66 65 54 43 45 60 87 118 137 147 155 166 167 162 154 156 160 160 152 135 130 135 144 157 171 182 187 204 235 262 278 267 255 260 296 316 315 304 291 261 222 186 159 161 207 277 295 302 297 288 280 286 297 304 297 292 295 307 335 5 346 328
175 187 205 200 188 172 155 121 110 110 115 109 100 96 108 109 106 100 91 77 68 61 58 64 62 53 33 31 34 45 63 137 166 167 160 175 179 177 169 165 157 147 140 140 141 149 158 167 179 191 193 202 227 249 258 252 254 262 276 279 277 274 272 264 238 104 92 124 183 209 235 266 276 277 274 274 261 245 239 243 256 267 269 195 168 168
176 181 187 177 163 148 130 110 106 107 107 104 106 114 131 129 127 122 115 94 65 37 26 48 59 53 23 358 352 3 36 332 215 192 168 172 177 183 181 171 158 145 136 136 147 176 191 187 191 198 204 212 233 254 262 256 251 249 249 261 279 291 295 292 312 26 55 274 246 236 236 253 267 275 278 280 271 258 244 235 242 251 251 214 185 178
176 168 154 144 138 134 128 121 118 117 113 108 115 130 149 147 138 130 121 115 106 80 44 54 71 80 62 342 326 325 333 328 308 263 185 176 182 188 191 177 161 148 140 137 148 187 215 208 207 208 208 211 228 249 265 267 261 249 237 248 271 291 304 297 302 308 289 250 236 227 218 230 244 256 267 272 270 265 257 252 255 257 255 229 203 199
149 130 115 117 117 116 114 122 133 143 145 144 148 153 160 159 141 126 114 114 111 101 74 67 75 81 79 7 313 311 315 323 327 323 264 201 193 190 194 181 165 153 149 149 153 164 178 206 215 217 213 215 229 244 257 261 261 255 245 238 236 238 242 255 267 281 286 261 241 223 215 218 234 260 279 275 272 268 263 254 258 260 258 235 215 210
124 117 116 124 130 134 142 155 158 157 157 158 154 151 149 156 137 122 114 112 107 97 89 97 91 84 70 321 302 307 313 322 331 341 337 212 194 188 184 181 176 171 170 172 169 166 164 188 206 211 206 211 224 237 248 254 258 260 255 241 238 240 242 241 243 252 269 272 267 252 218 185 153 336 305 290 282 273 264 260 261 262 259 243 226 219
125 129 134 140 149 159 167 164 157 150 152 155 151 142 134 134 122 113 113 113 109 104 94 98 107 117 156 223 275 308 322 326 331 339 347 351 354 181 177 184 187 191 196 199 196 191 184 189 193 198 203 219 230 237 240 243 249 255 257 247 245 249 254 253 248 244 248 259 263 257 186 113 101 86 279 282 282 278 268 256 253 254 257 246 234 226
145 149 152 154 159 163 163 153 148 149 159 163 156 141 128 125 116 106 98 104 110 113 103 89 107 132 162 180 187 182 200 296 309 317 327 337 353 10 28 193 195 197 203 211 217 221 222 217 214 212 216 235 244 246 242 235 237 242 248 242 242 249 256 254 246 233 225 236 239 228 146 107 106 213 251 269 279 280 276 264 254 249 249 245 239 233
165 164 163 161 160 159 157 155 156 163 173 171 158 140 138 154 151 138 109 109 115 119 117 112 127 149 170 182 184 178 170 189 236 278 296 302 310 329 16 129 190 202 211 219 225 230 234 234 231 227 224 233 244 251 250 240 235 235 237 233 237 246 254 253 244 227 213 222 218 200 163 166 195 231 257 278 283 281 277 274 265 257 249 244 240 238
172 170 168 165 165 168 170 170 172 177 186 178 159 141 142 173 170 158 132 132 131 132 134 144 154 166 181 198 199 187 173 178 205 245 268 277 288 312 22 65 92 124 225 242 241 239 240 237 231 226 223 226 235 246 252 247 242 238 239 237 240 247 255 256 247 228 213 217 209 195 176 187 196 206 228 270 278 278 275 275 270 263 255 246 241 239
175 175 171 170 175 180 183 179 181 187 195 187 171 152 139 156 159 137 116 126 137 147 157 163 167 173 186 194 193 185 179 180 198 231 250 256 265 291 66 82 83 75 39 345 311 290 279 259 244 234 226 224 226 232 243 245 245 242 241 240 242 247 256 258 252 234 216 215 205 190 180 189 189 189 197 247 267 274 274 269 265 263 261 256 249 245
180 179 176 177 183 188 188 185 187 192 197 190 175 158 141 139 135 125 112 131 149 163 172 172 174 180 192 195 193 187 184 180 188 211 231 228 211 162 139 120 109 99 70 19 356 349 348 336 312 280 248 231 223 221 228 233 236 239 241 239 238 241 250 254 253 245 234 223 204 182 174 183 191 194 195 224 256 272 274 265 259 259 262 265 262 259